Content
SEND FEEDBACK

Daily
Averages
Monthly
Summary
United States of America

LOUISVILLE, ALABAMA


Home > North America > United States > Alabama
Elevation: 47 feet     Latitude: 31 48N     Longitude: 085 33W

WEATHER
 
SELECT A DAY
Number of Records: 225,262;   Date Range: 1/1/95 - 8/28/14
 
SHARE

PRINT THIS DATA

[ ← Previous Day ]
WEATHER ALMANAC - JANUARY 31, 2013
[ Next Day → ]
[ °C ]   °F
Weather ElementAverageHighLow
Temperature45 °F55.8 °F (1:58 pm)36.5 °F (6:55 am)
Dewpoint27.6 °F34 °F (9:58 pm)22.1 °F (1:58 pm)
Humidity54 %80 % (9:58 pm)27 % (1:58 pm)
Barometer30.20 in30.30 in (11:58 pm)30.07 in (1:55 am)
Wind Speed8 mph16.1 mph (10:55 am)
Wind Gust23 mph (10:55 am)
Weather ElementAverage
Visibility10 mi
Wind DirectionWNW (288.3 °)

Weather ElementTotal
Precipitation---
Heating Degree Days18.9 (Base 65)
Averaged from 23 records on January 31, 2013
WEATHER CONDITIONS BREAKOUT
WIND DIRECTION BREAKOUT
WEATHER BY HOUR - JANUARY 31, 2013
[ °C ]   °F
Local TimeTemperatureDewpointHumidityBarometerVisibilityWind DirectionWind SpeedGust SpeedPrecipitationEventsConditions
1:55 AM41.5 °F31.8 °F68 %30.07 in10.0 miWNW (290°)6.9 mphClear
2:55 AM40.6 °F29.1 °F64 %30.10 in10.0 miWNW (300°)10.4 mphClear
3:55 AM39.0 °F28.9 °F67 %30.11 in10.0 miWNW (290°)8.1 mphClear
4:55 AM38.5 °F28.4 °F67 %30.10 in10.0 miNW (320°)9.2 mphClear
5:55 AM37.6 °F28.0 °F68 %30.12 in10.0 miNW (320°)8.1 mphClear
6:55 AM36.5 °F28.8 °F74 %30.15 in10.0 miWNW (300°)5.8 mphClear
7:55 AM39.7 °F29.1 °F66 %30.19 in10.0 miWNW (300°)9.2 mphClear
8:55 AM43.0 °F26.6 °F52 %30.20 in10.0 miNW (310°)15.0 mph21.9 mphClear
9:55 AM46.4 °F25.7 °F44 %30.24 in10.0 miNW (310°)10.4 mph19.6 mphClear
10:55 AM49.3 °F23.9 °F37 %30.24 in10.0 miNW (320°)16.1 mph23.0 mphClear
11:58 AM53.1 °F23.9 °F32 %30.22 in10.0 miNW (320°)15.0 mph20.7 mphClear
12:58 PM53.6 °F23.0 °F30 %30.20 in10.0 miWNW (300°)10.4 mph19.6 mphClear
1:58 PM55.8 °F22.1 °F27 %30.19 in10.0 miNW (310°)11.5 mph19.6 mphClear
2:58 PM55.4 °F22.1 °F27 %30.18 in10.0 miNNW (330°)10.4 mphClear
3:58 PM55.4 °F23.2 °F29 %30.19 in10.0 miNW (320°)8.1 mphClear
4:58 PM53.1 °F24.8 °F33 %30.19 in10.0 miNW (310°)3.5 mphClear
5:58 PM48.4 °F27.3 °F44 %30.22 in10.0 miWest (280°)2.3 mphClear
6:58 PM45.9 °F28.8 °F51 %30.23 in10.0 miWSW (250°)3.5 mphClear
7:58 PM42.8 °F31.6 °F65 %30.26 in10.0 miWSW (240°)5.8 mphClear
8:58 PM42.8 °F30.9 °F63 %30.26 in10.0 miWSW (250°)3.5 mphClear
9:58 PM39.6 °F34.0 °F80 %30.26 in10.0 miSSW (200°)1.2 mphClear
10:58 PM38.7 °F32.7 °F79 %30.28 in10.0 miSW (220°)3.5 mphClear
11:58 PM37.9 °F30.6 °F75 %30.30 in10.0 miWSW (240°)5.8 mphClear
Hourly data recorded from KOZR, located miles away from Louisville, Alabama







STORIES FROM OUR PARTNERS